• Join FlightAware (Why Join?)
  • Login
  • US Flag 
03:15AM EST


 

Airport Tracker/Info


-or-


 

Live Flight TrackerFlight Track Log ✈ SWA738 ✈ 06-Jul-2013 ✈ KPIT - KDEN

Flight Track Log - Related Links

Times and Time Zones

All times are in EDT time to prevent confusion due to time zone crossing. See the SWA738 flight status page for this flight to view local times or setup timezone preferences in your user account.

Time Position Orientation Groundspeed Altitude Reporting Facility
EDT Latitude Longitude Course Direction KTS MPH feet Rate Location/Type
10:07AM 40.5172 -80.4356 286° West 247 284 7,100  Level Cleveland Center
10:07AM 40.5172 -80.4356 286° West 247 284 7,100 1,080 Level Cleveland Center
10:08AM 40.5383 -80.5286 287° West 265 305 8,200 1,080 Climbing Cleveland Center
10:08AM 40.5383 -80.5286 287° West 265 305 8,200 2,760 Level Cleveland Center
10:09AM 40.5611 -80.6269 287° West 265 305 11,000 2,760 Climbing Cleveland Center
10:09AM 40.5611 -80.6269 287° West 265 305 11,000 2,460 Level Cleveland Center
10:10AM 40.5881 -80.7444 287° West 292 336 13,500 2,460 Climbing Cleveland Center
10:10AM 40.5881 -80.7444 287° West 292 336 13,500 2,880 Level Cleveland Center
10:11AM 40.6856 -81.2187 286° West  Level FlightAware Approximate
10:11AM 40.6172 -80.8675 287° West 335 386 16,400  Level Cleveland Center
10:11AM 40.6172 -80.8675 287° West 335 386 16,400 2,160 Level Cleveland Center
10:11AM 40.6856 -81.2187 286° West  Level FlightAware Approximate
10:12AM 40.7157 -81.3620 286° West  Level FlightAware Approximate
10:12AM 40.7157 -81.3620 286° West  Level FlightAware Approximate
10:12AM 40.6458 -81.0017 286° West 362 417 18,600  Level Cleveland Center
10:12AM 40.6458 -81.0017 286° West 362 417 18,600 2,400 Level Cleveland Center
10:13AM 40.6744 -81.1417 285° West 386 444 21,000 2,400 Climbing Cleveland Center
10:13AM 40.6744 -81.1417 285° West 386 444 21,000 2,100 Level Cleveland Center
10:14AM 40.7069 -81.2842 287° West 400 460 23,100 2,100 Climbing Cleveland Center
10:14AM 40.7069 -81.2842 287° West 400 460 23,100 1,860 Level Cleveland Center
10:15AM 40.7372 -81.4297 285° West 400 460 25,000 1,860 Climbing Cleveland Center
10:15AM 40.7372 -81.4297 285° West 400 460 25,000 1,800 Level Cleveland Center
10:16AM 40.7861 -81.5731 294° West 417 480 26,800 1,800 Climbing Cleveland Center
10:16AM 40.7861 -81.5731 294° West 417 480 26,800 1,980 Level Cleveland Center
10:17AM 40.8308 -81.7192 292° West 424 488 28,800 1,980 Climbing Cleveland Center
10:17AM 40.8308 -81.7192 292° West 424 488 28,800 1,200 Level Cleveland Center
10:18AM 40.8731 -81.8517 293° West 434 499 30,000 1,200 Climbing Cleveland Center
10:18AM 40.8731 -81.8517 293° West 434 499 30,000 1,500 Level Cleveland Center
10:19AM 40.9192 -82.0036 292° West 439 505 31,500 1,500 Climbing Cleveland Center
10:19AM 40.9192 -82.0036 292° West 439 505 31,500 1,980 Level Cleveland Center
10:20AM 40.9381 -82.1581 279° West 424 488 33,500 1,980 Climbing Cleveland Center
10:20AM 40.9381 -82.1581 279° West 424 488 33,500 1,500 Level Cleveland Center
10:21AM 40.9544 -82.3125 278° West 424 488 35,000 1,500 Climbing Cleveland Center
10:21AM 40.9544 -82.3125 278° West 424 488 35,000 1,500 Level Cleveland Center
10:22AM 40.9708 -82.4669 278° West 424 488 36,500 1,500 Climbing Cleveland Center
10:22AM 40.9708 -82.4669 278° West 424 488 36,500 1,500 Level Cleveland Center
10:23AM 40.9869 -82.6297 278° West 424 488 38,000 1,500 Climbing Cleveland Center
10:23AM 40.9869 -82.6297 278° West 424 488 38,000  Level Cleveland Center
10:24AM 41.0008 -82.7758 277° West 418 481 38,000  Level Cleveland Center
10:24AM 41.0008 -82.7758 277° West 418 481 38,000  Level Cleveland Center
10:25AM 41.0144 -82.9250 277° West 412 474 38,000  Level Cleveland Center
10:25AM 41.0144 -82.9250 277° West 412 474 38,000  Level Cleveland Center
10:26AM 41.0300 -83.0797 278° West 412 474 38,000  Level Cleveland Center
10:26AM 41.0300 -83.0797 278° West 412 474 38,000  Level Cleveland Center
10:27AM 41.0439 -83.2014 279° West 402 463 38,000  Level Cleveland Center
10:27AM 41.0439 -83.2014 279° West 402 463 38,000  Level Cleveland Center
10:28AM 41.0569 -83.3561 276° West 414 476 38,000  Level Cleveland Center
10:28AM 41.0569 -83.3561 276° West 414 476 38,000  Level Cleveland Center
10:29AM 41.0736 -83.5194 278° West 414 476 38,000  Level Cleveland Center
10:29AM 41.0736 -83.5194 278° West 414 476 38,000  Level Cleveland Center
10:30AM 41.0883 -83.6744 277° West 414 476 38,000  Level Cleveland Center
10:30AM 41.0883 -83.6744 277° West 414 476 38,000  Level Cleveland Center
10:31AM 41.0967 -83.8236 274° West 414 476 38,000  Level Cleveland Center
10:31AM 41.0967 -83.8236 274° West 414 476 38,000  Level Cleveland Center
10:32AM 41.1117 -83.9539 279° West 409 471 38,000  Level Cleveland Center
10:32AM 41.1117 -83.9539 279° West 409 471 38,000  Level Cleveland Center
10:33AM 41.1264 -84.1347 276° West 406 467 38,000  Level Chicago Center
10:33AM 41.1264 -84.1347 276° West 406 467 38,000  Level Chicago Center
10:34AM 41.1392 -84.2856 276° West 411 473 38,000  Level Chicago Center
10:34AM 41.1392 -84.2856 276° West 411 473 38,000  Level Chicago Center
10:35AM 41.1533 -84.4653 276° West 409 471 38,000  Level Chicago Center
10:35AM 41.1533 -84.4653 276° West 409 471 38,000  Level Chicago Center
10:36AM 41.1661 -84.6136 277° West 406 467 38,000  Level Chicago Center
10:36AM 41.1661 -84.6136 277° West 406 467 38,000  Level Chicago Center
10:37AM 41.1781 -84.7592 276° West 398 458 38,000  Level Chicago Center
10:37AM 41.1781 -84.7592 276° West 398 458 38,000  Level Chicago Center
10:38AM 41.1889 -84.9064 276° West 400 460 38,000  Level Chicago Center
10:38AM 41.1889 -84.9064 276° West 400 460 38,000  Level Chicago Center
10:39AM 41.1994 -85.0519 276° West 398 458 38,000  Level Chicago Center
10:39AM 41.1994 -85.0519 276° West 398 458 38,000  Level Chicago Center
10:40AM 41.2114 -85.1967 276° West 394 453 38,000  Level Chicago Center
10:40AM 41.2114 -85.1967 276° West 394 453 38,000  Level Chicago Center
10:41AM 41.2219 -85.3431 276° West 396 456 38,000  Level Chicago Center
10:41AM 41.2219 -85.3431 276° West 396 456 38,000  Level Chicago Center
10:42AM 41.2344 -85.5200 275° West 398 458 38,000  Level Chicago Center
10:42AM 41.2344 -85.5200 275° West 398 458 38,000  Level Chicago Center
10:43AM 41.2450 -85.6669 276° West 397 457 38,000  Level Chicago Center
10:43AM 41.2450 -85.6669 276° West 397 457 38,000  Level Chicago Center
10:44AM 41.2558 -85.8139 276° West 396 456 38,000  Level Chicago Center
10:44AM 41.2558 -85.8139 276° West 396 456 38,000  Level Chicago Center
10:45AM 41.2658 -85.9617 275° West 400 460 38,000  Level Chicago Center
10:45AM 41.2658 -85.9617 275° West 400 460 38,000  Level Chicago Center
10:46AM 41.2758 -86.1103 275° West 402 463 38,000  Level Chicago Center
10:46AM 41.2758 -86.1103 275° West 402 463 38,000  Level Chicago Center
10:47AM 41.2872 -86.2600 276° West 404 465 38,000  Level Chicago Center
10:47AM 41.2872 -86.2600 276° West 404 465 38,000  Level Chicago Center
10:48AM 41.2961 -86.4094 275° West 406 467 38,000  Level Chicago Center
10:48AM 41.2961 -86.4094 275° West 406 467 38,000  Level Chicago Center
10:49AM 41.3056 -86.5611 275° West 409 471 38,000  Level Chicago Center
10:49AM 41.3056 -86.5611 275° West 409 471 38,000  Level Chicago Center
10:50AM 41.3158 -86.7247 275° West 407 468 38,000  Level Chicago Center
10:50AM 41.3158 -86.7247 275° West 407 468 38,000  Level Chicago Center
10:51AM 41.3253 -86.8742 275° West 406 467 38,000  Level Chicago Center
10:51AM 41.3253 -86.8742 275° West 406 467 38,000  Level Chicago Center
10:52AM 41.3358 -87.0547 275° West 409 471 38,000  Level Chicago Center
10:52AM 41.3358 -87.0547 275° West 409 471 38,000  Level Chicago Center
10:53AM 41.3450 -87.2069 275° West 414 476 38,000  Level Chicago Center
10:53AM 41.3450 -87.2069 275° West 414 476 38,000  Level Chicago Center
10:54AM 41.3542 -87.3594 275° West 416 479 38,000  Level Chicago Center
10:54AM 41.3542 -87.3594 275° West 416 479 38,000  Level Chicago Center
10:55AM 41.3636 -87.5128 275° West 421 484 38,000  Level Chicago Center
10:55AM 41.3636 -87.5128 275° West 421 484 38,000  Level Chicago Center
10:56AM 41.3722 -87.6658 274° West 420 483 38,000  Level Chicago Center
10:56AM 41.3722 -87.6658 274° West 420 483 38,000  Level Chicago Center
10:58AM 41.3806 -87.8225 274° West 427 491 38,000  Level Chicago Center
10:58AM 41.3806 -87.8225 274° West 427 491 38,000  Level Chicago Center
10:59AM 41.3917 -88.0056 275° West 426 490 38,000  Level Chicago Center
10:59AM 41.3917 -88.0056 275° West 426 490 38,000  Level Chicago Center
11:00AM 41.4011 -88.1650 275° West 431 496 38,000  Level Chicago Center
11:00AM 41.4011 -88.1650 275° West 431 496 38,000  Level Chicago Center
11:01AM 41.4050 -88.3064 272° West 426 490 38,000  Level Chicago Center
11:01AM 41.4050 -88.3064 272° West 426 490 38,000  Level Chicago Center
11:02AM 41.4144 -88.4939 274° West 426 490 38,000  Level Chicago Center
11:02AM 41.4144 -88.4939 274° West 426 490 38,000  Level Chicago Center
11:03AM 41.4211 -88.6514 273° West 428 493 38,000  Level Chicago Center
11:03AM 41.4211 -88.6514 273° West 428 493 38,000  Level Chicago Center
11:04AM 41.4281 -88.8119 273° West 434 499 38,000  Level Chicago Center
11:04AM 41.4281 -88.8119 273° West 434 499 38,000  Level Chicago Center
11:05AM 41.4358 -88.9733 274° West 439 505 38,000  Level Chicago Center
11:05AM 41.4358 -88.9733 274° West 439 505 38,000  Level Chicago Center
11:06AM 41.4422 -89.1350 273° West 441 507 38,000  Level Chicago Center
11:06AM 41.4422 -89.1350 273° West 441 507 38,000  Level Chicago Center
11:07AM 41.4503 -89.3156 273° West 442 509 38,000  Level Chicago Center
11:07AM 41.4503 -89.3156 273° West 442 509 38,000  Level Chicago Center
11:08AM 41.4578 -89.4789 274° West 444 511 38,000  Level Chicago Center
11:08AM 41.4578 -89.4789 274° West 444 511 38,000  Level Chicago Center
11:09AM 41.4642 -89.6411 273° West 443 510 38,000  Level Chicago Center
11:09AM 41.4642 -89.6411 273° West 443 510 38,000  Level Chicago Center
11:10AM 41.4700 -89.8056 273° West 446 513 38,000  Level Chicago Center
11:10AM 41.4700 -89.8056 273° West 446 513 38,000  Level Chicago Center
11:11AM 41.4772 -90.0042 273° West 451 519 38,000  Level Chicago Center
11:11AM 41.4772 -90.0042 273° West 451 519 38,000  Level Chicago Center
11:12AM 41.4831 -90.1725 273° West 456 525 38,000  Level Chicago Center
11:12AM 41.4831 -90.1725 273° West 456 525 38,000  Level Chicago Center
11:13AM 41.4883 -90.3436 272° West 463 533 38,000  Level Chicago Center
11:13AM 41.4883 -90.3436 272° West 463 533 38,000  Level Chicago Center
11:14AM 41.4936 -90.5153 272° West 466 536 38,000  Level Chicago Center
11:14AM 41.4936 -90.5153 272° West 466 536 38,000  Level Chicago Center
11:15AM 41.4958 -90.6931 271° West 480 552 38,000  Level Chicago Center
11:15AM 41.4958 -90.6931 271° West 480 552 38,000  Level Chicago Center
11:16AM 41.5011 -90.8664 272° West 473 544 38,000  Level Chicago Center
11:16AM 41.5011 -90.8664 272° West 473 544 38,000  Level Chicago Center
11:17AM 41.5069 -91.0703 272° West 463 533 38,000  Level Chicago Center
11:17AM 41.5069 -91.0703 272° West 463 533 38,000  Level Chicago Center
11:18AM 41.5111 -91.2408 272° West 463 533 38,000  Level Chicago Center
11:18AM 41.5111 -91.2408 272° West 463 533 38,000  Level Chicago Center
11:19AM 41.5139 -91.4078 271° West 468 539 38,000  Level Chicago Center
11:19AM 41.5139 -91.4078 271° West 468 539 38,000  Level Chicago Center
11:25AM 41.4900 -92.4567 269° West 454 522 38,000  Level Chicago Center
11:26AM 41.4883 -92.6192 269° West 446 513 38,000  Level Chicago Center
11:27AM 41.4900 -92.7833 271° West 446 513 38,000  Level Chicago Center
11:28AM 41.4897 -92.9792 270° West 445 512 38,000  Level Chicago Center
11:29AM 41.4897 -93.1408 270° West 443 510 38,000  Level Chicago Center
11:30AM 41.4908 -93.3028 271° West 442 509 38,000  Level Chicago Center
11:32AM 41.4897 -93.4647 270° West 442 509 38,000  Level Chicago Center
11:33AM 41.4889 -93.6275 270° West 443 510 38,000  Level Chicago Center
11:34AM 41.4886 -93.8244 270° West 449 517 38,000  Level Chicago Center
11:35AM 41.4886 -93.9892 270° West 450 518 38,000  Level Chicago Center
11:36AM 41.4858 -94.1536 269° West 449 517 38,000  Level Chicago Center
11:37AM 41.4850 -94.3169 270° West 446 513 38,000  Level Chicago Center
11:38AM 41.4833 -94.4814 269° West 447 514 38,000  Level Chicago Center
11:39AM 41.4806 -94.7017 269° West 441 507 38,000  Level Minneapolis Center
11:40AM 41.4794 -94.8656 270° West 440 506 38,000  Level Minneapolis Center
11:41AM 41.4769 -95.0597 269° West 435 501 38,000  Level Minneapolis Center
11:42AM 41.4731 -95.2225 268° West 437 503 38,000  Level Minneapolis Center
11:43AM 41.4706 -95.3528 269° West 439 505 38,000  Level Minneapolis Center
11:44AM 41.4658 -95.5475 268° West 440 506 38,000  Level Minneapolis Center
11:45AM 41.4636 -95.7239 269° West 442 509 38,000  Level Minneapolis Center
11:46AM 41.4592 -95.8864 268° West 442 509 38,000  Level Minneapolis Center
11:47AM 41.4553 -96.0481 268° West 438 504 38,000  Level Minneapolis Center
11:48AM 41.4519 -96.2094 268° West 436 502 38,000  Level Minneapolis Center
11:49AM 41.4481 -96.3772 268° West 433 498 38,000  Level Minneapolis Center
11:50AM 41.4428 -96.5353 268° West 429 494 38,000  Level Minneapolis Center
11:51AM 41.4378 -96.7258 268° West 430 495 38,000  Level Minneapolis Center
11:52AM 41.4333 -96.8517 267° West 428 493 38,000  Level Minneapolis Center
11:53AM 41.4269 -97.0431 268° West 430 495 38,000  Level Minneapolis Center
11:55AM 41.4217 -97.2028 268° West 431 496 38,000  Level Minneapolis Center
11:56AM 41.4161 -97.3636 267° West 434 499 38,000  Level Minneapolis Center
11:57AM 41.4097 -97.5244 267° West 436 502 38,000  Level Minneapolis Center
11:58AM 41.4019 -97.7169 267° West 434 499 38,000  Level Minneapolis Center
11:59AM 41.3969 -97.8453 267° West 435 501 38,000  Level Minneapolis Center
12:00PM 41.3894 -98.0369 267° West 433 498 38,000  Level Minneapolis Center
12:01PM 41.3833 -98.1883 267° West 429 494 38,000  Level Minneapolis Center
12:02PM 41.3756 -98.3467 266° West 430 495 38,000  Level Minneapolis Center
12:03PM 41.3381 -98.5089 253° West 442 509 38,000  Level Minneapolis Center
12:04PM 41.3025 -98.6611 253° West 438 504 38,000  Level Minneapolis Center
12:05PM 41.2731 -98.8472 258° West 434 499 38,000  Level Minneapolis Center
12:06PM 41.2508 -99.0344 261° West 431 496 38,000  Level Minneapolis Center
12:07PM 41.2242 -99.2006 258° West 424 488 38,000  Level Minneapolis Center
12:08PM 41.2006 -99.3489 258° West 416 479 38,000  Level Minneapolis Center
12:09PM 41.1764 -99.5003 258° West 419 482 38,000  Level Minneapolis Center
12:10PM 41.1525 -99.6508 258° West 417 480 38,000  Level Minneapolis Center
12:11PM 41.1331 -99.7711 258° West 418 481 38,000  Level Minneapolis Center
12:12PM 41.1042 -99.9506 258° West 416 479 38,000  Level Minneapolis Center
12:13PM 41.0842 -100.0714 258° West 418 481 38,000  Level Minneapolis Center
12:14PM 41.0506 -100.2817 258° West 417 480 38,000  Level Minneapolis Center
12:15PM 41.0244 -100.4308 257° West 417 480 38,000  Level Minneapolis Center
12:17PM 40.9886 -100.6425 257° West 415 478 38,000  Level Denver Center
12:18PM 40.9692 -100.7617 258° West 421 484 38,000  Level Denver Center
12:19PM 40.9333 -100.9494 256° West 412 474 38,000  Level Denver Center
12:20PM 40.9083 -101.0903 257° West 415 478 38,000  Level Denver Center
12:21PM 40.8792 -101.2556 257° West 415 478 38,000  Level Denver Center
12:22PM 40.8547 -101.3958 257° West 412 474 38,000  Level Denver Center
12:23PM 40.8247 -101.5581 256° West 408 470 38,000  Level Denver Center
12:24PM 40.8003 -101.6978 257° West 409 471 38,000  Level Denver Center
12:25PM 40.7714 -101.8578 257° West 402 463 38,000  Level Denver Center
12:26PM 40.7456 -101.9944 256° West 401 461 38,000  Level Denver Center
12:27PM 40.7169 -102.1553 257° West 403 464 38,000  Level Denver Center
12:28PM 40.6906 -102.2922 256° West 404 465 38,000  Level Denver Center
12:29PM 40.6603 -102.4531 256° West 406 467 38,000  Level Denver Center
12:30PM 40.6344 -102.5903 256° West 406 467 38,000  Level Denver Center
12:31PM 40.6044 -102.7444 256° West 406 467 38,000  Level Denver Center
12:32PM 40.5786 -102.8869 257° West 404 465 38,000 -540 Level Denver Center
12:33PM 40.5497 -103.0283 255° West 402 463 36,900 -1,800 Descending Denver Center
12:34PM 40.5236 -103.1678 256° West 395 455 34,400 -2,820 Descending Denver Center
12:35PM 40.4894 -103.3419 256° West 412 474 31,100 -2,760 Descending Denver Center
12:36PM 40.4606 -103.4900 256° West 418 481 28,800 -2,220 Descending Denver Center
12:37PM 40.4317 -103.6331 255° West 408 470 26,600 -2,100 Descending Denver Center
12:38PM 40.4033 -103.7744 255° West 406 467 24,500 -1,980 Descending Denver Center
12:40PM 40.3800 -103.8914 255° West 384 442 22,600 -1,320 Descending Denver Center
12:41PM 40.3278 -104.0389 245° Southwest 368 423 21,800 -1,500 Descending Denver Center
12:42PM 40.2383 -104.1319 218° Southwest 383 441 19,500 -2,100 Descending Denver Center
12:43PM 40.1606 -104.2186 220° Southwest 367 422 17,500 -2,100 Descending Denver Center
12:44PM 40.0775 -104.3069 219° Southwest 359 413 15,200 -2,040 Descending Denver Center
12:45PM 40.0033 -104.3881 220° Southwest 350 403 13,400 -1,320 Descending Denver Center
12:46PM 39.9356 -104.4611 220° Southwest 320 368 12,500 -1,020 Descending Denver Center
12:47PM 39.8533 -104.4989 199° South 304 350 11,300 -720 Descending Denver Center
12:48PM 39.7739 -104.5006 181° South 287 330 11,000 -420 Descending Denver Center
12:49PM 39.6967 -104.5036 182° South 261 300 10,500 -780 Descending Denver Center
12:50PM 39.6394 -104.5308 200° South 238 274 9,500 -960 Descending Denver Center
12:51PM 39.6439 -104.6044 275° West 215 247 8,600 -840 Descending Denver Center
12:52PM 39.7003 -104.6303 341° North 202 232 7,800 -780 Descending Denver Center
12:53PM 39.7517 -104.6431 349° North 180 207 7,100 -840 Descending Denver Center
12:54PM 39.7956 -104.6425 North 149 171 6,100 -900 Descending Denver Center
12:55PM 39.8381 -104.6419 North 151 174 5,300 -780 Descending Denver Center
12:57PM 39.8500 -104.6667 North  Level FlightAware Approximate
01:04PM 39.8617 -104.6732 North  Level Estimated
01:05PM 39.8617 -104.6732 North  Level Estimated